This is the latest recevied weather packets stored in our database for station/object SR9NSK-1. If no packets are shown the sender has not sent any weather packets the latest 1 day(s).
| Time | Temp. | Humidity | Pressure | Rain* | Wind** | Luminosity | Snow |
|---|---|---|---|---|---|---|---|
| 1778030522 | 8.33° C | 59% | 866.9 hPa | - | 7.6 m/s, 151° | - | - |
| 1778030401 | 8.33° C | 59% | 867 hPa | - | 8.05 m/s, 145° | - | - |
| 1778030281 | 8.33° C | 59% | 866.9 hPa | - | 8.94 m/s, 156° | - | - |
| 1778030161 | 8.33° C | 59% | 867 hPa | - | 9.39 m/s, 163° | - | - |
| 1778030039 | 8.33° C | 59% | 867.1 hPa | - | 7.6 m/s, 152° | - | - |
| 1778029919 | 8.33° C | 59% | 867 hPa | - | 8.49 m/s, 152° | - | - |
| 1778029799 | 8.33° C | 59% | 867 hPa | - | 9.39 m/s, 155° | - | - |
| 1778029679 | 8.33° C | 59% | 866.9 hPa | - | 8.05 m/s, 147° | - | - |
| 1778029559 | 8.33° C | 59% | 866.9 hPa | - | 8.49 m/s, 145° | - | - |
| 1778029439 | 8.33° C | 59% | 866.9 hPa | - | 9.39 m/s, 150° | - | - |
| 1778029319 | 8.33° C | 58% | 867 hPa | - | 9.39 m/s, 150° | - | - |
| 1778029199 | 8.33° C | 58% | 867 hPa | - | 9.39 m/s, 148° | - | - |
| 1778029079 | 8.33° C | 58% | 867 hPa | - | 9.39 m/s, 150° | - | - |
| 1778028959 | 8.33° C | 58% | 867 hPa | - | 9.39 m/s, 157° | - | - |
| 1778028837 | 8.33° C | 58% | 867.1 hPa | - | 9.83 m/s, 155° | - | - |
| 1778028717 | 8.33° C | 58% | 867.2 hPa | - | 8.94 m/s, 153° | - | - |
| 1778028597 | 8.33° C | 58% | 867.2 hPa | - | 7.15 m/s, 154° | - | - |
| 1778028477 | 8.33° C | 58% | 867 hPa | - | 8.05 m/s, 149° | - | - |
| 1778028357 | 8.89° C | 58% | 867 hPa | - | 8.94 m/s, 153° | - | - |
| 1778028237 | 8.89° C | 57% | 867 hPa | - | 9.39 m/s, 153° | - | - |
| 1778028117 | 8.89° C | 57% | 867 hPa | - | 9.83 m/s, 156° | - | - |
| 1778027997 | 8.89° C | 57% | 867.1 hPa | - | 9.83 m/s, 161° | - | - |
| 1778027877 | 8.89° C | 57% | 867.1 hPa | - | 9.83 m/s, 155° | - | - |
| 1778027757 | 8.89° C | 57% | 867.2 hPa | - | 8.94 m/s, 162° | - | - |
| 1778027635 | 8.89° C | 57% | 867.2 hPa | - | 9.83 m/s, 166° | - | - |
* Rain since midnight (hover to see other rain measurements)
** Current wind speed in m/s (hover to see current wind gust speed)